This demonstration page uses our WeatherBlox Daily Observations layout. Learn more.

Left ArrowRight Arrow

Hourly Observations for January 27, 2019

Temp ( °F °C ) Dew Point ( °F °C ) Humidity (%) Winds ( mph kmh ) Pressure ( in mb ) Visibility ( mi km ) Precip ( " mm )
12:51 am 00:51 Clear 34 1.1 17 -8.3 50 50 SSE 3 6 30.24 1024 10 16 N/A
1:51 am 01:51 Clear 34 1.1 17 -8.3 50 50 ESE 3 6 30.24 1024 10 16 N/A
2:51 am 02:51 Clear 32 undefined 17 -8.3 54 54 ESE 7 11 30.25 1025 10 16 N/A
3:51 am 03:51 Clear 31 -0.6 17 -8.3 56 56 ESE 6 9 30.24 1024 10 16 N/A
4:51 am 04:51 Clear 30 -1.1 17 -8.3 58 58 ENE 5 7 30.24 1024 10 16 N/A
5:51 am 05:51 Clear 31 -0.6 17 -8.3 56 56 E 5 7 30.27 1025 10 16 N/A
6:51 am 06:51 Clear 33 0.6 17 -8.3 52 52 E 9 15 30.27 1025 10 16 N/A
7:51 am 07:51 Sunny 37 2.8 17 -8.3 44 44 SSE 12 19 30.27 1025 10 16 N/A
8:51 am 08:51 Sunny 46 7.8 18 -7.8 32 32 SE 14 22 30.26 1025 10 16 N/A
9:51 am 09:51 Sunny 51 10.6 18 -7.8 27 27 SE 12 19 30.25 1024 10 16 N/A
10:51 am 10:51 Sunny 54 12.2 17 -8.3 23 23 ESE 14 22 30.22 1023 10 16 N/A
11:51 am 11:51 Sunny 57 13.9 19 -7.2 23 23 undefined N/A 30.17 1022 10 16 N/A
12:51 pm 12:51 Sunny 59 15 17 -8.3 19 19 VRB 3 6 30.14 1021 10 16 N/A
1:51 pm 13:51 Sunny 60 15.6 16 -8.9 18 18 S 7 11 30.09 1019 10 16 N/A
2:51 pm 14:51 Sunny 60 15.6 15 -9.4 17 17 SSW 5 7 30.06 1018 10 16 N/A
3:51 pm 15:51 Sunny 60 15.6 14 -10 16 16 N N/A 30.04 1017 10 16 N/A
4:51 pm 16:51 Sunny 60 15.6 15 -9.4 17 17 W 5 7 30.02 1017 10 16 N/A
5:51 pm 17:51 Clear 53 11.7 18 -7.8 25 25 NW 6 9 30.01 1016 10 16 N/A
6:51 pm 18:51 Clear 48 8.9 18 -7.8 30 30 NNW 6 9 30.02 1017 10 16 N/A
7:51 pm 19:51 Clear 45 7.2 19 -7.2 35 35 NE 3 6 30.02 1017 10 16 N/A
8:51 pm 20:51 Clear 42 5.6 19 -7.2 40 40 NE 3 6 30.00 1016 10 16 N/A
9:51 pm 21:51 Clear 38 3.3 19 -7.2 46 46 NW 3 6 29.99 1016 10 16 N/A
10:51 pm 22:51 Clear 35 1.7 19 -7.2 52 52 E 5 7 29.99 1016 10 16 N/A
11:51 pm 23:51 Clear 34 1.1 20 -6.7 56 56 ESE 3 6 29.98 1015 10 16 N/A

Powered by AerisWeather